Weather History for Buffalo, WY

Change the Weather History Date:

Monday, December 17, 2012

  Actual Average Record
Temperature  
Mean Temperature 30 °F 25 °F  
Max Temperature 48 °F 36 °F 65 °F (1998)
Min Temperature 12 °F 15 °F -6 °F (2005)
Degree Days  
Heating Degree Days 35 40  
Month to date heating degree days 543 668  
Since 1 July heating degree days 2100 2502  
Cooling Degree Days 0 0  
Month to date cooling degree days 0 0  
Year to date cooling degree days 795 492  
Moisture  
Dew Point 18 °F    
Average Humidity 61    
Maximum Humidity 92    
Minimum Humidity 29    
Precipitation  
Precipitation T in 0.01 in 0.18 in (2000)
Month to date precipitation 0.01 0.24  
Year to date precipitation 8.83 13.29  
Sea Level Pressure  
Sea Level Pressure 29.50 in    
Wind  
Wind Speed 8 mph (West)    
Max Wind Speed 26 mph    
Max Gust Speed 32 mph    
Visibility 10 miles    
Events      
T = Trace of Precipitation, MM = Missing Value Source: NWS Daily Summary

Daily Weather History Graph

Daily Weather History Graph

Search for Another Location

Airport:

Trip Planner

Search our weather history database for the weather conditions in past years. The results will help you decide how hot, cold, wet, or windy it might be!

Date:

Astronomy

Dec. 17, 2012 Rise Set
Actual Time 7:37 AM MST 4:28 PM MST
Civil Twilight 7:04 AM MST 5:02 PM MST
Nautical Twilight 6:27 AM MST 5:39 PM MST
Astronomical Twilight 5:52 AM MST 6:14 PM MST
Moon 10:38 AM MST (12/17) 10:04 PM MST (12/17)
Length of Visible Light 9h 57m
Length of Day
8h 51m
Waxing Crescent, 25% of the Moon is Illuminated
Dec 17
Waxing Crescent
Dec 19
First Quarter
Dec 28
Full
Jan 4
Last Quarter
Jan 11
New

Hourly Weather History & Observations

Time (MST) Temp. Windchill Dew Point Humidity Pressure Visibility Wind Dir Wind Speed Gust Speed Precip Events Conditions
12:53 AM 21.0 °F 13.4 °F 10.0 °F 63% 29.69 in 10.0 mi South 5.8 mph - N/A   Clear
1:53 AM 19.9 °F 14.9 °F 10.0 °F 65% 29.66 in 10.0 mi South 3.5 mph - N/A   Clear
2:53 AM 18.0 °F - 9.0 °F 68% 29.62 in 10.0 mi Calm Calm - N/A   Clear
3:53 AM 12.9 °F - 7.0 °F 77% 29.61 in 10.0 mi Calm Calm - N/A   Clear
4:53 AM 12.9 °F - 7.0 °F 77% 29.57 in 10.0 mi Calm Calm - N/A   Mostly Cloudy
5:53 AM 16.0 °F 10.4 °F 8.1 °F 71% 29.57 in 10.0 mi NNE 3.5 mph - N/A   Clear
6:53 AM 16.0 °F 5.3 °F 8.1 °F 71% 29.52 in 10.0 mi ESE 8.1 mph - N/A   Clear
7:53 AM 18.0 °F - 9.0 °F 68% 29.52 in 10.0 mi Calm Calm - N/A   Clear
8:53 AM 26.1 °F 16.8 °F 14.0 °F 60% 29.49 in 10.0 mi WSW 9.2 mph - N/A   Mostly Cloudy
9:53 AM 28.0 °F 18.1 °F 16.0 °F 61% 29.46 in 10.0 mi SE 11.5 mph - N/A   Clear
10:53 AM 33.1 °F 26.9 °F 16.0 °F 50% 29.44 in 10.0 mi SE 6.9 mph - N/A   Partly Cloudy
11:53 AM 48.0 °F - 18.0 °F 30% 29.37 in 10.0 mi WSW 16.1 mph 21.9 mph N/A   Clear
12:53 PM 46.9 °F - 17.1 °F 30% 29.33 in 10.0 mi SW 19.6 mph - N/A   Clear
1:21 PM 44.6 °F 39.2 °F 19.4 °F 37% 29.31 in 10.0 mi NNW 10.4 mph - N/A   Clear
1:53 PM 41.0 °F 31.9 °F 21.9 °F 47% 29.39 in 10.0 mi NNW 19.6 mph 25.3 mph N/A   Mostly Cloudy
2:53 PM 35.1 °F 25.9 °F 26.1 °F 70% 29.46 in 10.0 mi NW 13.8 mph - N/A   Overcast
5:53 PM 32.0 °F 23.0 °F 25.0 °F 75% 29.50 in 10.0 mi WSW 11.5 mph - N/A   Scattered Clouds
6:27 PM 30.2 °F 18.5 °F 28.4 °F 93% 29.42 in 10.0 mi NNW 17.3 mph 25.3 mph N/A   Mostly Cloudy
6:40 PM 30.2 °F 21.9 °F 28.4 °F 93% 29.43 in 10.0 mi North 9.2 mph 25.3 mph N/A   Mostly Cloudy
6:53 PM 30.0 °F 22.4 °F 28.0 °F 92% 29.55 in 10.0 mi NNW 8.1 mph - N/A   Mostly Cloudy
7:53 PM 30.0 °F 23.2 °F 26.1 °F 85% 29.52 in 10.0 mi South 6.9 mph - 0.00 in   Mostly Cloudy
8:53 PM 28.9 °F 25.2 °F 26.1 °F 89% 29.50 in 10.0 mi SW 3.5 mph - N/A   Clear
9:53 PM 30.9 °F 22.8 °F 19.9 °F 64% 29.51 in 10.0 mi North 9.2 mph - N/A   Clear
10:53 PM 30.0 °F 17.9 °F 21.9 °F 72% 29.52 in 10.0 mi NNE 18.4 mph 24.2 mph N/A   Clear
11:53 PM 28.0 °F 20.8 °F 23.0 °F 81% 29.51 in 10.0 mi Variable 6.9 mph 23.0 mph N/A   Clear